Find Starlink 6298

NORAD ID: 56391 Int'l Des: 2023-061 Owner: SPXS Country: US Constellation: starlink operational
LEOCIRCULAR

Live Position

Loading 3D Globe...

About Starlink 6298

Description loading...

Upcoming Passes

Passes for default location (London). Set your location on the main map for personalized predictions.

Altitude History

Loading altitude history...

Two-Line Element Set

1 56391U 23061T 26126.56211414 .00000313 00000-0 20895-4 0 9992
2 56391 43.0038 230.7856 0001349 269.5381 90.5316 15.27572484165603
Epoch: May 6, 2026 • Age: 17 hours

Current Status

Altitude 485.8 km
Velocity 7.62 km/s
Sub-Earth Point -15.46°S, 107.92°E
Launch Date May 4, 2023
Age 3 years
Type internet

Technical Details

Classification Payload
Mass 305.00 kg
Dry Mass 290.00 kg
Total Mass 305.00 kg
Length 0.20 m
Diameter 2.80 m
Span 9.00 m
Shape Box + pan
Manufacturer SPXS
Bus Type Starlink
Phase Status In Orbit
Owner/State SPXS/US

Most Searched